When you browse on this site, cookies collect data to enhance your experience and personalize the content and advertising you see.
Visit our Privacy Policy to learn more. By continuing to use the site, you agree to this use of cookies and data.
  • In Romania
  • List of Countries
  • For 7 days
  • Water Temperature
  • Weather Map
  • Weather Widgets
  • user-avatar
    Login

    Hourly Weather Bubanza

    Today, 15 September, Sunday

    Time Temperature Precipitation Wind Pressure Humidity
    00:00 +25°C° 0 mm 1 mps 673 mmHg 66%
    01:00 +25°C° 0 mm 1 mps 673 mmHg 67%
    02:00 +25°C° 0 mm 1 mps 672 mmHg 68%
    03:00 +24°C° 0 mm 1 mps 672 mmHg 68%
    04:00 +24°C° 0 mm 1 mps 672 mmHg 68%
    05:00 +24°C° 0 mm 1 mps 673 mmHg 68%
    06:00 +26°C° 0 mm 1 mps 673 mmHg 63%
    07:00 +27°C° 0 mm 1 mps 674 mmHg 58%
    08:00 +29°C° 0 mm 1 mps 675 mmHg 54%
    09:00 +30°C° 0.1 mm 1 mps 675 mmHg 51%
    10:00 +32°C° 0.1 mm 1 mps 675 mmHg 47%
    11:00 +34°C° 0.1 mm 2 mps 676 mmHg 43%
    12:00 +32°C° 0.5 mm 2 mps 674 mmHg 47%
    13:00 +31°C° 0.5 mm 3 mps 673 mmHg 50%
    14:00 +30°C° 0.5 mm 3 mps 672 mmHg 53%
    15:00 +30°C° 0.3 mm 3 mps 672 mmHg 53%
    16:00 +30°C° 0.3 mm 2 mps 672 mmHg 54%
    17:00 +30°C° 0.3 mm 2 mps 672 mmHg 55%
    18:00 +28°C° 0.2 mm 2 mps 672 mmHg 60%
    19:00 +27°C° 0.2 mm 2 mps 672 mmHg 65%
    20:00 +25°C° 0.2 mm 1 mps 673 mmHg 70%
    21:00 +25°C° 0.1 mm 1 mps 673 mmHg 70%
    22:00 +25°C° 0.1 mm 1 mps 673 mmHg 71%
    23:00 +25°C° 0.1 mm 1 mps 673 mmHg 71%

    Tomorrow, 16 September, Monday

    Time Temperature Precipitation Wind Pressure Humidity
    00:00 +24°C° 0 mm 1 mps 673 mmHg 71%
    01:00 +24°C° 0 mm 1 mps 672 mmHg 71%
    02:00 +24°C° 0 mm 1 mps 672 mmHg 71%
    03:00 +24°C° 0 mm 1 mps 672 mmHg 71%
    04:00 +23°C° 0 mm 1 mps 672 mmHg 72%
    05:00 +23°C° 0 mm 1 mps 672 mmHg 72%
    06:00 +25°C° 0 mm 1 mps 673 mmHg 67%
    07:00 +26°C° 0 mm 1 mps 674 mmHg 63%
    08:00 +28°C° 0 mm 1 mps 675 mmHg 58%
    09:00 +29°C° 0.1 mm 2 mps 675 mmHg 52%
    10:00 +31°C° 0.1 mm 3 mps 675 mmHg 47%
    11:00 +33°C° 0.1 mm 3 mps 675 mmHg 41%
    12:00 +34°C° 0.1 mm 3 mps 674 mmHg 40%
    13:00 +34°C° 0.1 mm 3 mps 673 mmHg 38%
    14:00 +34°C° 0.1 mm 3 mps 673 mmHg 37%
    15:00 +33°C° 0 mm 3 mps 672 mmHg 39%
    16:00 +32°C° 0 mm 2 mps 672 mmHg 41%
    17:00 +31°C° 0 mm 2 mps 671 mmHg 43%
    18:00 +30°C° 0 mm 1 mps 672 mmHg 46%
    19:00 +28°C° 0 mm 1 mps 672 mmHg 50%
    20:00 +27°C° 0 mm 1 mps 673 mmHg 53%
    21:00 +26°C° 0 mm 1 mps 673 mmHg 54%
    22:00 +26°C° 0 mm 1 mps 673 mmHg 55%
    23:00 +25°C° 0 mm 1 mps 673 mmHg 56%

    Day after tomorrow, 17 September, Tuesday

    Time Temperature Precipitation Wind Pressure Humidity
    00:00 +25°C° 0 mm 1 mps 672 mmHg 56%
    01:00 +25°C° 0 mm 1 mps 672 mmHg 56%
    02:00 +24°C° 0 mm 1 mps 671 mmHg 57%
    03:00 +24°C° 0 mm 1 mps 672 mmHg 57%
    04:00 +24°C° 0 mm 1 mps 672 mmHg 57%
    05:00 +24°C° 0 mm 1 mps 672 mmHg 58%
    06:00 +25°C° 0 mm 1 mps 673 mmHg 55%
    07:00 +26°C° 0 mm 1 mps 674 mmHg 53%
    08:00 +27°C° 0 mm 1 mps 674 mmHg 51%
    09:00 +29°C° 0 mm 2 mps 674 mmHg 45%
    10:00 +31°C° 0 mm 2 mps 674 mmHg 40%
    11:00 +34°C° 0 mm 3 mps 675 mmHg 34%
    12:00 +34°C° 0 mm 3 mps 674 mmHg 34%
    13:00 +34°C° 0 mm 3 mps 673 mmHg 33%
    14:00 +35°C° 0 mm 3 mps 672 mmHg 32%
    15:00 +33°C° 0 mm 3 mps 672 mmHg 37%
    16:00 +31°C° 0 mm 3 mps 671 mmHg 41%
    17:00 +30°C° 0 mm 2 mps 671 mmHg 46%
    18:00 +29°C° 0 mm 2 mps 671 mmHg 49%
    19:00 +28°C° 0 mm 1 mps 672 mmHg 52%
    20:00 +27°C° 0 mm 1 mps 672 mmHg 55%
    21:00 +26°C° 0 mm 1 mps 672 mmHg 55%
    22:00 +26°C° 0 mm 1 mps 672 mmHg 56%
    23:00 +25°C° 0 mm 1 mps 672 mmHg 56%

    18 September, Wednesday

    Time Temperature Precipitation Wind Pressure Humidity
    00:00 +25°C° 0 mm 1 mps 672 mmHg 56%
    01:00 +23°C° 0 mm 0 mps 671 mmHg 55%
    02:00 +23°C° 0 mm 0 mps 671 mmHg 55%
    03:00 +23°C° 0 mm 0 mps 671 mmHg 56%
    04:00 +25°C° 0 mm 1 mps 672 mmHg 57%
    05:00 +24°C° 0 mm 1 mps 672 mmHg 58%
    06:00 +25°C° 0 mm 1 mps 673 mmHg 53%
    07:00 +27°C° 0 mm 1 mps 674 mmHg 49%
    08:00 +28°C° 0 mm 1 mps 675 mmHg 45%
    09:00 +29°C° 0 mm 1 mps 675 mmHg 41%
    10:00 +31°C° 0 mm 2 mps 675 mmHg 37%
    11:00 +32°C° 0 mm 2 mps 675 mmHg 33%
    12:00 +32°C° 0 mm 2 mps 674 mmHg 32%
    13:00 +34°C° 0 mm 2 mps 673 mmHg 32%
    14:00 +34°C° 0 mm 2 mps 672 mmHg 32%
    15:00 +32°C° 0 mm 2 mps 672 mmHg 34%
    16:00 +32°C° 0 mm 2 mps 672 mmHg 36%
    17:00 +31°C° 0 mm 2 mps 672 mmHg 37%
    18:00 +30°C° 0 mm 1 mps 672 mmHg 41%
    19:00 +28°C° 0 mm 1 mps 672 mmHg 44%
    20:00 +25°C° 0 mm 0 mps 673 mmHg 48%
    21:00 +24°C° 0 mm 0 mps 673 mmHg 49%
    22:00 +26°C° 0 mm 1 mps 673 mmHg 49%
    23:00 +26°C° 0 mm 1 mps 673 mmHg 50%

    19 September, Thursday

    Time Temperature Precipitation Wind Pressure Humidity
    00:00 +25°C° 0 mm 1 mps 672 mmHg 51%
    01:00 +25°C° 0 mm 1 mps 672 mmHg 51%
    02:00 +24°C° 0 mm 1 mps 672 mmHg 52%
    03:00 +24°C° 0 mm 1 mps 672 mmHg 52%
    04:00 +24°C° 0 mm 1 mps 672 mmHg 53%
    05:00 +24°C° 0 mm 1 mps 673 mmHg 53%
    06:00 +25°C° 0 mm 1 mps 674 mmHg 51%
    07:00 +26°C° 0 mm 1 mps 674 mmHg 49%
    08:00 +27°C° 0 mm 1 mps 675 mmHg 47%
    09:00 +29°C° 0 mm 2 mps 675 mmHg 43%
    10:00 +30°C° 0 mm 2 mps 675 mmHg 38%
    11:00 +32°C° 0 mm 2 mps 675 mmHg 34%
    12:00 +32°C° 0 mm 2 mps 674 mmHg 33%
    13:00 +34°C° 0 mm 3 mps 673 mmHg 32%
    14:00 +34°C° 0 mm 3 mps 673 mmHg 31%
    15:00 +32°C° 0 mm 2 mps 673 mmHg 34%
    16:00 +31°C° 0 mm 2 mps 672 mmHg 37%
    17:00 +30°C° 0 mm 2 mps 672 mmHg 40%
    18:00 +29°C° 0 mm 1 mps 672 mmHg 44%
    19:00 +27°C° 0 mm 1 mps 673 mmHg 48%
    20:00 +26°C° 0 mm 1 mps 673 mmHg 52%
    21:00 +25°C° 0 mm 1 mps 673 mmHg 53%
    22:00 +25°C° 0 mm 1 mps 673 mmHg 53%
    23:00 +24°C° 0 mm 1 mps 673 mmHg 54%

    20 September, Friday

    Time Temperature Precipitation Wind Pressure Humidity
    00:00 +24°C° 0 mm 1 mps 672 mmHg 54%
    01:00 +24°C° 0 mm 1 mps 672 mmHg 54%
    02:00 +24°C° 0 mm 1 mps 672 mmHg 55%
    03:00 +23°C° 0 mm 1 mps 672 mmHg 55%
    04:00 +23°C° 0 mm 1 mps 672 mmHg 55%
    05:00 +23°C° 0 mm 1 mps 672 mmHg 56%
    06:00 +25°C° 0 mm 1 mps 673 mmHg 51%
    07:00 +27°C° 0 mm 1 mps 674 mmHg 46%
    08:00 +29°C° 0 mm 1 mps 675 mmHg 41%
    09:00 +30°C° 0 mm 1 mps 675 mmHg 37%
    10:00 +32°C° 0 mm 2 mps 675 mmHg 34%
    11:00 +34°C° 0 mm 3 mps 675 mmHg 31%
    12:00 +34°C° 0 mm 3 mps 674 mmHg 31%
    13:00 +33°C° 0 mm 3 mps 673 mmHg 32%
    14:00 +33°C° 0 mm 3 mps 672 mmHg 32%
    15:00 +33°C° 0 mm 3 mps 672 mmHg 35%
    16:00 +31°C° 0 mm 2 mps 672 mmHg 38%
    17:00 +30°C° 0 mm 2 mps 672 mmHg 40%
    18:00 +29°C° 0 mm 1 mps 672 mmHg 44%
    19:00 +27°C° 0 mm 1 mps 672 mmHg 47%
    20:00 +24°C° 0 mm 0 mps 672 mmHg 51%
    21:00 +24°C° 0 mm 0 mps 672 mmHg 51%
    22:00 +25°C° 0 mm 1 mps 672 mmHg 51%
    23:00 +25°C° 0 mm 1 mps 673 mmHg 52%
    Show more